Date String (YYYY-MM-DD hh:mm:ss) UTC,Instrument flags,Ambient pressure (hPa),Sample flow (lpm),Bypass flow (lpm),Sample temperature (°C),Ambient temperature (°C),ASC tube jacket temperature (°C),LED temperature (°C),Box temperature (°C),Sample RH (%),Span deviation,Mass concentration (μg/m³),Mass concentration (μg/m³),Mass concentration (μg/m³)
DateTimeUTC,F1_M11,P_M11,Q1_M11,Q2_M11,T1_M11,T2_M11,T3_M11,T4_M11,T5_M11,U1_M11,ZSPAN_M11,X0_M11,X2_M11,X1_M11
2022-11-23 13:00:00,,0819.9,5.00,0.00,21.9,20.6,00.0,30.8,23.8,05.5,0000.0,0002.54,0000.54,0000.41
2022-11-23 13:01:00,,0819.9,5.00,0.00,21.9,20.5,00.0,30.8,23.8,05.4,0000.0,0002.66,0000.59,0000.43
2022-11-23 13:02:00,,0819.9,5.00,0.00,21.9,20.5,00.0,30.8,23.7,05.0,0000.0,0002.62,0000.59,0000.44
2022-11-23 13:03:00,,0819.9,5.00,0.00,21.9,20.5,00.0,30.8,23.7,04.8,0000.0,0002.55,0000.58,0000.45
2022-11-23 13:04:00,,0819.9,5.00,0.00,21.9,20.6,00.0,30.8,23.7,04.5,0000.0,0002.58,0000.58,0000.45
2022-11-23 13:05:00,,0819.9,5.00,0.00,21.9,20.6,00.0,30.8,23.7,04.4,0000.0,0002.71,0000.62,0000.46
2022-11-23 13:06:00,,0819.9,5.00,0.00,21.9,20.6,00.0,30.8,23.7,04.3,0000.0,0002.71,0000.61,0000.46
2022-11-23 13:07:00,,0819.9,5.00,0.00,21.9,20.6,00.0,30.8,23.7,04.3,0000.0,0002.90,0000.63,0000.46
2022-11-23 13:08:00,,0820.0,5.00,0.00,21.9,20.5,00.0,30.8,23.7,04.4,0000.0,0002.88,0000.63,0000.46
2022-11-23 13:09:00,,0819.9,4.99,0.00,21.9,20.4,00.0,30.8,23.7,04.9,0000.0,0001.48,0000.61,0000.46
2022-11-23 13:10:00,,0819.9,5.02,0.00,21.8,20.3,00.0,30.8,23.6,04.9,0000.0,0001.19,0000.61,0000.47
2022-11-23 13:11:00,,0819.9,4.99,0.00,21.8,20.2,00.0,30.8,23.5,05.1,0000.0,0001.21,0000.61,0000.45
2022-11-23 13:12:00,,0819.9,4.99,0.00,21.8,20.2,00.0,30.8,23.5,05.0,0000.0,0001.13,0000.57,0000.43
2022-11-23 13:13:00,,0819.9,5.01,0.00,21.8,20.2,00.0,30.7,23.6,04.9,0000.0,0001.11,0000.56,0000.42
2022-11-23 13:14:00,,0820.0,5.01,0.00,21.8,20.3,00.0,30.7,23.6,04.8,0000.0,0001.08,0000.55,0000.42
2022-11-23 13:15:00,,0820.0,5.00,0.00,21.8,20.3,00.0,30.7,23.6,04.9,0000.0,0001.07,0000.56,0000.42
2022-11-23 13:16:00,,0820.0,5.00,0.00,21.8,20.2,00.0,30.7,23.5,05.5,0000.0,0000.98,0000.55,0000.42
2022-11-23 13:17:00,,0819.9,5.00,0.00,21.8,20.7,00.0,30.7,23.6,05.7,0000.0,0000.93,0000.54,0000.42
2022-11-23 13:18:00,,0819.9,5.00,0.00,21.9,21.6,00.0,30.7,23.8,05.6,0000.0,0000.78,0000.54,0000.41
2022-11-23 13:19:00,,0819.9,5.01,0.00,22.0,22.1,00.0,30.7,24.0,05.0,0000.0,0000.79,0000.55,0000.42
2022-11-23 13:20:00,,0819.8,4.99,0.00,22.0,21.8,00.0,30.7,24.0,04.3,0000.0,0000.82,0000.56,0000.43
2022-11-23 13:21:00,,0819.8,4.99,0.00,22.0,21.6,00.0,30.8,24.0,04.2,0000.0,0000.80,0000.56,0000.43
2022-11-23 13:22:00,,0819.8,5.01,0.00,22.0,21.4,00.0,30.8,24.0,04.1,0000.0,0000.76,0000.55,0000.43
2022-11-23 13:23:00,,0819.8,5.01,0.00,22.1,21.2,00.0,30.9,24.0,04.3,0000.0,0000.72,0000.54,0000.43
2022-11-23 13:24:00,,0819.8,5.00,0.00,22.1,21.1,00.0,30.9,24.0,04.2,0000.0,0000.74,0000.55,0000.44
2022-11-23 13:25:00,,0819.8,4.99,0.00,22.1,21.1,00.0,30.9,24.0,04.5,0000.0,0000.74,0000.54,0000.43
2022-11-23 13:26:00,,0819.8,4.99,0.00,22.1,21.0,00.0,30.9,24.0,04.2,0000.0,0000.75,0000.53,0000.43
2022-11-23 13:27:00,,0819.9,5.01,0.00,22.1,21.0,00.0,30.9,23.9,05.5,0000.0,0000.73,0000.52,0000.42
2022-11-23 13:28:00,,0819.9,5.00,0.00,22.0,20.8,00.0,30.9,23.9,05.7,0000.0,0000.80,0000.55,0000.44
2022-11-23 13:29:00,,0819.9,5.01,0.00,22.0,20.7,00.0,30.9,23.8,06.4,0000.0,0000.87,0000.59,0000.48
2022-11-23 13:30:00,,0819.9,5.00,0.00,22.0,20.6,00.0,30.9,23.8,06.4,0000.0,0000.95,0000.65,0000.54
2022-11-23 13:31:00,,0819.8,4.99,0.00,22.0,20.6,00.0,30.9,23.8,05.8,0000.0,0001.11,0000.76,0000.62
2022-11-23 13:32:00,,0819.9,5.00,0.00,22.0,20.6,00.0,30.9,23.8,06.0,0000.0,0001.30,0000.86,0000.69
2022-11-23 13:33:00,,0819.9,5.00,0.00,22.0,20.6,00.0,30.9,23.8,06.5,0000.0,0002.51,0000.99,0000.80
2022-11-23 13:34:00,,0819.9,5.00,0.00,22.0,20.6,00.0,30.9,23.8,06.5,0000.0,0004.07,0001.14,0000.92
2022-11-23 13:35:00,,0819.9,5.00,0.00,22.0,20.6,00.0,30.9,23.8,07.3,0000.0,0004.64,0001.42,0001.16
2022-11-23 13:36:00,,0819.8,5.00,0.00,22.0,20.5,00.0,30.9,23.8,07.9,0000.0,0005.36,0001.89,0001.58
2022-11-23 13:37:00,,0819.8,4.99,0.00,22.0,20.5,00.0,30.9,23.8,08.0,0000.0,0006.32,0002.41,0002.04
2022-11-23 13:38:00,,0819.8,5.00,0.00,21.9,20.5,00.0,30.9,23.8,08.0,0000.0,0006.89,0002.84,0002.43
2022-11-23 13:39:00,,0819.8,5.01,0.00,21.9,20.5,00.0,30.9,23.8,08.1,0000.0,0007.56,0003.20,0002.85
2022-11-23 13:40:00,,0819.9,5.01,0.00,21.9,20.5,00.0,30.9,23.8,07.4,0000.0,0008.07,0003.40,0003.16
2022-11-23 13:41:00,,0819.9,5.00,0.00,21.9,20.6,00.0,30.9,23.8,06.6,0000.0,0008.24,0003.50,0003.23
2022-11-23 13:42:00,,0819.9,4.99,0.00,21.9,20.6,00.0,30.9,23.8,06.3,0000.0,0008.26,0003.51,0003.23
2022-11-23 13:43:00,,0819.8,5.00,0.00,21.9,20.6,00.0,30.8,23.8,05.8,0000.0,0008.21,0003.48,0003.22
2022-11-23 13:44:00,,0819.8,5.01,0.00,21.9,20.6,00.0,30.8,23.8,05.6,0000.0,0007.87,0003.42,0003.18
2022-11-23 13:45:00,,0819.9,4.99,0.00,21.9,20.6,00.0,30.8,23.8,05.6,0000.0,0007.15,0003.36,0003.13
2022-11-23 13:46:00,,0819.9,4.99,0.00,21.9,20.8,00.0,30.8,23.8,05.8,0000.0,0006.82,0003.27,0002.98
2022-11-23 13:47:00,,0819.8,5.01,0.00,22.0,21.6,00.0,30.8,24.0,06.3,0000.0,0006.29,0003.01,0002.65
2022-11-23 13:48:00,,0819.8,4.98,0.00,22.1,22.3,00.0,30.8,24.2,06.0,0000.0,0005.29,0002.56,0002.25
2022-11-23 13:49:00,,0819.8,5.01,0.00,22.2,22.1,00.0,30.9,24.2,06.1,0000.0,0004.82,0002.20,0001.93
2022-11-23 13:50:00,,0819.8,5.00,0.00,22.2,21.8,00.0,30.9,24.2,06.2,0000.0,0004.28,0001.90,0001.61
2022-11-23 13:51:00,,0819.8,5.00,0.00,22.2,21.5,00.0,31.0,24.1,07.0,0000.0,0003.37,0001.66,0001.38
2022-11-23 13:52:00,,0819.8,5.01,0.00,22.2,21.3,00.0,31.0,24.1,06.1,0000.0,0003.32,0001.61,0001.31
2022-11-23 13:53:00,,0819.9,5.00,0.00,22.2,21.2,00.0,31.0,24.1,06.2,0000.0,0003.32,0001.65,0001.36
2022-11-23 13:54:00,,0819.8,5.00,0.00,22.2,21.1,00.0,31.0,24.1,06.8,0000.0,0003.71,0001.81,0001.47
2022-11-23 13:55:00,,0819.8,5.00,0.00,22.2,21.0,00.0,31.0,24.0,06.5,0000.0,0003.73,0001.99,0001.63
2022-11-23 13:56:00,,0819.8,5.00,0.00,22.2,20.9,00.0,31.0,24.0,06.3,0000.0,0003.17,0002.16,0001.77
2022-11-23 13:57:00,,0819.8,5.00,0.00,22.2,20.8,00.0,31.0,24.0,06.4,0000.0,0003.38,0002.32,0001.92
2022-11-23 13:58:00,,0819.7,5.00,0.00,22.2,20.8,00.0,31.0,24.0,06.4,0000.0,0004.28,0002.47,0002.03
2022-11-23 13:59:00,,0819.7,5.00,0.00,22.1,20.7,00.0,31.0,24.0,07.0,0000.0,0004.65,0002.68,0002.20
